Погода в Тибау-ду-Суле

Бразилия     6°11′18″S   35°05′37″W
темп.,
°C
ветер,
м/с
пор.,
м/с
влажн.,
%
обл.,
%
осадки,
мм/ч
давл.,
гПа
погр.,
м
27 февраля, сб
сб2700:00+26в358296 0.8 1011482
03:00+26в348175 1.9 1010539
06:00+26в347922 0.0 1011555
09:00+28в557319 0.2 1012906
12:00+28вюв55660 0.0 1011938
15:00+28вюв56710 0.0 1008859
18:00+27вюв577714 0.0 1009688
21:00+27вюв578121 0.0 1010661
28 февраля, вс
вс2800:00+26вюв468111 0.0 1010644
03:00+26вюв467917 0.1 1009685
06:00+26вюв467914 0.1 1010704
09:00+28вюв456919 0.2 1011874
12:00+28вюв566845 0.7 1009926
15:00+28вюв567347 0.7 1007848
18:00+27вюв577959 0.9 1008713
21:00+27вюв578079 1.3 1010659
1 марта, пн
пн100:00+26вюв4581100 0.0 1009625
03:00+26вюв348082 0.1 1007533
06:00+26вюв458029 0.6 1008550
09:00+28в457134 1.0 1010900
12:00+29вюв45663 0.2 1009864
15:00+28вюв57682 0.2 10071028
18:00+27вюв67760 0.3 1008809
21:00+27в79810 3.4 1010743
2 марта, вт
вт200:00+26в578124 0.1 1010737
03:00+26вюв468130 0.2 1009591
06:00+26вюв35822 0.7 1010508
09:00+27вюв56754 1.6 1012821
12:00+28вюв55725 0.2 1011801
15:00+28вюв56744 0.3 1009832
18:00+27вюв57780 0.0 1010702
21:00+27вюв57790 0.0 1012703
3 марта, ср
ср300:00+26вюв56795 0.0 1012642
03:00+26вюв457923 0.0 1011617
06:00+26вюв458022 0.2 1012624
09:00+27вюв567619 0.5 1014811
12:00+28вюв56735 0.1 1013844
15:00+28вюв56765 0.2 1011765
18:00+27юв578212 0.0 1012718
21:00+26юв68829 0.8 1013701